Location: El Carrer d�Abaix
(41.5797°N, 2.1791°E)
Time: 20:05:11
(UTC+00:00)

NOSS 2-2 (C) - Pass Details

Date: 06 June 2020
Orbit: 479 x 1729 km, 63.3° (Epoch: 12 July)

Event Time Altitude Azimuth Distance (km) Brightness Sun altitude
Rises 20:00:38 0° 219° (SW) 2,553 6.7 -6.6°
Reaches altitude 10° 20:02:44 10° 222° (SW) 1,650 5.8 -6.9°
Maximum altitude 20:06:16 71° 306° (NW) 520 3.4 -7.4°
Drops below altitude 10° 20:10:05 10° 31° (NNE) 1,784 6.0 -8.0°
Sets 20:12:27 0° 34° (NE) 2,788 7.0 -8.3°
